星链-3519 (STARLINK-3519 )

导读 | 星芒AI

STARLINK-3519 是 SpaceX Starlink 卫星互联网项目中的第 3519 颗卫星。该卫星属于低轨通信卫星群,旨在为全球用户提供高速、低延迟的互联网服务。它运行在约 550 公里的近地轨道,采用先进通信技术,支持宽带接入。作为 Starlink 计划的一部分,该卫星有助于扩大网络覆盖范围,特别是在偏远和网络基础设施薄弱的地区。其发射和运行体现了 SpaceX 在推动全球互联网普及和航天技术应用方面的持续努力。

基本信息
目录编号:
51890
目录名称:
STARLINK-3519
国际标识:
2022-022AQ
轨道中心:
EARTH
卫星名称:
星链-3519
卫星全名:
星链-3519 (STARLINK-3519 )
卫星状态:
已陨落 最后检测时间 2025-05-12
发射日期:
2022-03-03 UTC
国别 :
美国 (US)
星等 :
--
轨道信息
数据来源 国际轨道数据
星历时间: 2025-05-13T02:41:05+0800
轨道信息已过期221天
半长轴: 6546.132km
偏心率: 0.0006179
轨道倾角: 53.155°
近地点辐角 308.598°
升交点赤经 201.457°
平近点角 155.512°
近地点: 163.952km
远地点: 172.042km
周期: 87.849分钟
每日圈数: 16.391762
详细信息
固有亮度:
5
最大亮度:
2.5
卫星平台:
Starlink v1.5
覆盖范围:
全球
运营商:
太空探索技术公司
运营商所在国:
美国
制造商(研发单位):
太空探索技术公司
制造商所在国:
美国
使用方式:
暂无
卫星简介
星链(Starlink)计划是由太空探索技术公司(SpaceX)提出的一个巨型低轨卫星互联网星座项目,计划在2019年至2024年间在太空搭建由约1.2万颗卫星组成的“星链”网络,其中1584颗将部署在地球上空550千米处的近地轨道,并从2020年开始工作。该卫星仍在工作。